Regional Weather Roundup
Issued by NWS Sterling, VA

Home | Current Version | Previous Version | Graphics & Text | Print | Product List | Glossary On
Versions: 1 2 3 4 5 6 7 8 9 10 11 12 13 14 15 16 17 18 19 20 21 22 23 24 25 26 27
000
ASUS41 KLWX 231111
RWRLWX

REGIONAL WEATHER ROUNDUP
NATIONAL WEATHER SERVICE BALTIMORE MD/WASHINGTON DC
700 AM EDT TUE MAY 23 2017

Note: "FAIR" indicates few or no clouds below 12,000 feet
with no significant weather and/or obstructions to visibility.
 TC=TEMPERATURE CELSIUS

 * =Non NWS site. Station does not report precipitation (e.g. rain,
    snow, etc.), thunder, or fog.

DCZ001-MDZ009-015-VAZ040>042-051-053>054-231200-
WASHINGTON METRO

CITY           SKY/WX    TMP DP  RH WIND       PRES   REMARKS
WASHINGTON NAT CLOUDY    63  55  75 N10       29.95F
DULLES         CLOUDY    57  52  83 CALM      29.96S
ANDREWS AFB    CLOUDY    59  59  99 N6        29.94F
FT BELVOIR     CLOUDY    60  54  80 CALM      29.94F
QUANTICO       CLOUDY    63  55  75 N7        29.94F
COLLEGE PARK*  CLOUDY    57  56  97 CALM      29.95S
LEESBURG*      CLOUDY    59  54  82 CALM      29.97R
MANASSAS*        N/A     59  52  77 N3        29.96S
GAITHERSBURG*  CLOUDY    55  52  89 CALM      29.97R

$$

MDZ006>007-011-014-231200-
BALTIMORE METRO

CITY           SKY/WX    TMP DP  RH WIND       PRES   REMARKS
BWI AIRPORT    CLOUDY    59  55  87 NE5       29.94S
MD SCIENCE CTR   N/A     63  53  70 MISG      29.96R
MARTIN STATE   CLOUDY    57  57 100 CALM      29.97R
ANNAPOLIS      CLOUDY    62  61  96 N5        29.94S
FORT MEADE*    CLOUDY    55  54  94 CALM      29.97F

$$

MDZ012-015-019>023-231200-
MARYLAND EASTERN SHORE

CITY           SKY/WX    TMP DP  RH WIND       PRES   REMARKS
OCEAN CITY     CLOUDY    62  61  96 NE5       29.95R FOG
SALISBURY      CLOUDY    62  62 100 NE5       29.94S FOG
BAY BRIDGE AP* CLOUDY    61  55  82 N6        29.94F
CAMBRIDGE*     PTSUNNY   63  61  94 N8        29.93F FOG
EASTON*        PTSUNNY   63  59  88 NE5       29.98S FOG

$$

MDZ017>025-231200-
SOUTHERN MARYLAND

CITY           SKY/WX    TMP DP  RH WIND       PRES   REMARKS
PATUXENT RIVER CLOUDY    64  64 100 N9        29.93F FOG
ST INIGOES     CLOUDY    65  63  93 NE5       29.92S FOG
LEONARDTOWN*   CLOUDY    61  61 100 CALM      29.94F

$$

MDZ003>005-231200-
NORTH CENTRAL MARYLAND

CITY           SKY/WX    TMP DP  RH WIND       PRES   REMARKS
FREDERICK*     CLOUDY    54  54 100 CALM      29.99S FOG
HAGERSTOWN APT CLOUDY    56  51  84 CALM      29.97R
WESTMINSTER*   CLOUDY    55  52  88 N5        29.96F

$$

MDZ501>502-231200-
WESTERN MARYLAND

CITY           SKY/WX    TMP DP  RH WIND       PRES   REMARKS
OAKLAND*         N/A     46  43  87 E10G16    29.97S
CUMBERLAND*    CLOUDY    50  50 100 CALM      30.02R

$$

VAZ025>031-231200-
SHENANDOAH VALLEY

CITY           SKY/WX    TMP DP  RH WIND       PRES   REMARKS
WINCHESTER*    CLOUDY    52  50  93 CALM      29.96F
FRONT ROYAL*   CLOUDY    52  52 100 CALM      29.95S
LURAY*         CLOUDY    55  54  94 CALM      29.95F
NEW MARKET*    CLOUDY    54  52  92 CALM      29.95F
STAUNTON*      CLOUDY    57  52  82 N3        29.96F
WAYNESBORO*    CLOUDY    57  54  88 NW5       29.95F

$$

WVZ021-048>050-054>055-231200-
EASTERN WEST VIRGINIA PANHANDLE

CITY           SKY/WX    TMP DP  RH WIND       PRES   REMARKS
MARTINSBURG    CLOUDY    51  49  92 CALM      29.96S
PETERSBURG*    CLOUDY    53  51  94 CALM      29.98R

$$

VAZ036>039-050-231200-
CENTRAL FOOTHILLS

CITY           SKY/WX    TMP DP  RH WIND       PRES   REMARKS
CHARLOTTESVILL CLOUDY    62  55  77 N3        29.94S
CULPEPER*      CLOUDY    59  56  88 CALM      29.96S
ORANGE*        CLOUDY    61  50  67 E5        29.94F
GORDONSVILLE*  CLOUDY    61  53  73 NE3       29.94F
WARRENTON*     CLOUDY    60  51  72 CALM      29.94S

$$

VAZ055>057-231200-
NORTH AND CENTRAL PIEDMONT

CITY           SKY/WX    TMP DP  RH WIND       PRES   REMARKS
FREDERICKSBRG* CLOUDY    62  53  74 CALM      29.94S
STAFFORD*      CLOUDY    59  53  80 N5        29.98S

$$

NCZ024-NYZ072-PAZ021-071-VAZ022-071-231200-
OTHER REGIONAL OBSERVATIONS

CITY           SKY/WX    TMP DP  RH WIND       PRES   REMARKS
NEW YORK CITY  MOSUNNY   58  54  86 NE7       29.99R
PHILADELPHIA   CLOUDY    62  56  80 NE10      29.96S
PITTSBURGH     CLOUDY    49  48  97 CALM      29.95R
ROANOKE        CLOUDY    60  54  80 NE8       29.91F
RICHMOND       CLOUDY    63  63 100 NE8       29.92R
RALEIGH        LGT RAIN  68  67  96 E5        29.89S FOG

$$

ANZ530>537-231200-
MARINE OBSERVATIONS

STATION/POSITION TIME  TEMP    WIND        PRES
                       AIR SEA DIR/SP/G
                 (UTC) (F)     (DEG/KT/KT) (MB)
THOMAS PT LIGHT  1100   63 66   10/ 12/ 13   N/A
BALT KEY BRIDGE  1048   61      30/  6/  8 1014.2R
COVE POINT       1048   63      20/ 10/ 13 1014.1F
LEWISETTA        1048   65 69   60/  6/  8 1013.5R
SOLOMONS ISLAND  1048   64 67   10/  5/  6   N/A
PINEY POINT      1042           60/  4/  6   N/A

$$





USA.gov is the U.S. government's official web portal to all federal, state and local government web resources and services.